Location: Newark
(35.6799°N, 139.7636°E)
Time: 11:17:49
(UTC+00:00)

Explorer 7 - All Passes

Search period start: 07 December 2019 00:00
Search period end: 17 December 2019 00:00
Orbit: 485 x 680 km, 50.3° (Epoch: 06 December)

Date Brightness Start Highest point End Pass type
(mag) Time Alt. Az. Time Alt. Az. Time Alt. Az.
07 Dec - 06:34:56 10° SSW 06:39:33 47° SE 06:44:16 10° ENE daylight
07 Dec - 08:15:49 10° W 08:20:18 35° NNW 08:24:49 10° NE visible
07 Dec - 09:59:10 10° NW 10:02:05 15° N 10:04:58 10° NNE visible
07 Dec - 11:41:23 10° NNW 11:44:18 16° N 11:47:11 10° NE night (unlit)
07 Dec - 13:21:34 10° NW 13:26:01 39° NNE 13:30:14 10° E night (unlit)
07 Dec - 15:02:23 10° WNW 15:06:35 35° SW 15:10:31 10° SSE night (unlit)
08 Dec - 05:03:02 10° SE 05:04:30 11° SE 05:05:56 10° ESE daylight
08 Dec - 06:39:36 10° SW 06:44:25 77° SE 06:49:21 10° NE daylight
08 Dec - 08:21:22 10° W 08:25:29 26° NNW 08:29:36 10° NNE visible
08 Dec - 10:04:51 10° NW 10:07:28 14° N 10:10:04 10° NNE visible
08 Dec - 11:46:15 10° NNW 11:49:39 19° NNE 11:52:58 10° ENE night (unlit)
08 Dec - 13:26:24 10° NW 13:31:06 59° NE 13:35:30 10° ESE night (unlit)
08 Dec - 15:07:55 10° W 15:11:18 21° SW 15:14:33 10° S night (unlit)
09 Dec - 05:05:44 10° S 05:09:09 20° SE 05:12:39 10° E daylight
09 Dec - 06:44:34 10° WSW 06:49:22 68° NW 06:54:17 10° NE daylight
09 Dec - 08:27:04 10° WNW 08:30:44 21° NNW 08:34:24 10° NNE visible
09 Dec - 10:10:19 10° NNW 10:12:53 14° N 10:15:25 10° NNE visible
09 Dec - 11:51:03 10° NNW 11:54:56 23° NNE 11:58:41 10° ENE night (unlit)
09 Dec - 13:31:19 10° NW 13:36:04 87° SW 13:40:32 10° SE night (unlit)
09 Dec - 15:14:24 10° WSW 15:15:57 12° SW 15:17:30 10° SW night (unlit)
10 Dec - 05:09:39 10° SSW 05:13:53 33° SE 05:18:14 10° ENE daylight
10 Dec - 06:49:47 10° WSW 06:54:25 45° NNW 06:59:09 10° NE daylight
10 Dec - 08:32:50 10° NW 08:36:03 17° NNW 08:39:15 10° NNE visible
10 Dec - 10:15:30 10° NNW 10:18:17 15° N 10:21:01 10° NE visible
10 Dec - 11:55:50 10° NW 12:00:09 31° NNE 12:04:17 10° E night (unlit)
10 Dec - 13:36:22 10° WNW 13:40:57 52° SW 13:45:17 10° SSE night (unlit)
11 Dec - 05:14:04 10° SSW 05:18:41 55° SE 05:23:28 10° ENE daylight
11 Dec - 06:55:12 10° W 06:59:32 32° NNW 07:03:57 10° NE daylight
11 Dec - 08:38:35 10° NW 08:41:25 15° N 08:44:14 10° NNE visible
11 Dec - 10:20:28 10° NNW 10:23:39 17° NNE 10:26:46 10° NE visible
11 Dec - 12:00:38 10° NW 12:05:17 44° NNE 12:09:42 10° ESE night (unlit)
11 Dec - 13:41:37 10° WNW 13:45:45 30° SW 13:49:40 10° SSE night (unlit)
12 Dec - 03:41:24 10° SSE 03:43:36 13° SE 03:45:50 10° E daylight
12 Dec - 05:18:50 10° SW 05:23:35 89° SE 05:28:30 10° NE daylight
12 Dec - 07:00:48 10° WNW 07:04:44 24° NNW 07:08:44 10° NNE daylight
12 Dec - 08:44:10 10° NW 08:46:48 14° N 08:49:26 10° NNE visible
12 Dec - 10:25:19 10° NNW 10:28:58 20° NNE 10:32:32 10° ENE visible
12 Dec - 12:05:30 10° NW 12:10:19 69° NE 12:14:54 10° ESE night (unlit)
12 Dec - 13:47:17 10° W 13:50:28 18° SW 13:53:31 10° S night (unlit)
13 Dec - 03:44:39 10° S 03:48:16 23° SE 03:52:01 10° ENE daylight
13 Dec - 05:23:53 10° WSW 05:28:34 59° NW 05:33:24 10° NE daylight
13 Dec - 07:06:31 10° WNW 07:10:01 19° NNW 07:13:33 10° NNE daylight
13 Dec - 08:49:32 10° NNW 08:52:13 14° N 08:54:52 10° NE visible
13 Dec - 10:30:07 10° NNW 10:34:14 26° NNE 10:38:13 10° E visible
13 Dec - 12:10:26 10° NW 12:15:16 75° SW 12:19:51 10° SE night (unlit)
14 Dec - 03:48:44 10° SSW 03:53:01 38° SE 03:57:29 10° ENE daylight
14 Dec - 05:29:10 10° W 05:33:37 39° NNW 05:38:14 10° NE daylight
14 Dec - 07:12:18 10° NW 07:15:21 16° NNW 07:18:26 10° NNE daylight
14 Dec - 08:54:39 10° NNW 08:57:36 16° N 09:00:31 10° NE visible
14 Dec - 10:34:54 10° NW 10:39:25 35° NNE 10:43:46 10° E visible
14 Dec - 12:15:32 10° WNW 12:20:08 44° SW 12:24:29 10° SSE night (unlit)
15 Dec - 03:53:16 10° SW 03:57:50 64° SE 04:02:38 10° NE daylight
15 Dec - 05:34:39 10° W 05:38:46 28° NNW 05:43:02 10° NE daylight
15 Dec - 07:18:00 10° NW 07:20:44 15° N 07:23:29 10° NNE daylight
15 Dec - 08:59:35 10° NNW 09:02:57 18° NNE 09:06:17 10° ENE visible
15 Dec - 10:39:43 10° NW 10:44:30 51° NE 10:49:06 10° ESE visible
15 Dec - 12:20:53 10° WNW 12:24:53 27° SW 12:28:45 10° S night (unlit)
16 Dec - 02:20:04 10° SSE 02:22:43 15° SE 02:25:26 10° E daylight
16 Dec - 03:58:08 10° SW 04:02:45 80° NW 04:07:38 10° NE daylight
16 Dec - 05:40:17 10° WNW 05:44:01 22° NNW 05:47:50 10° NNE daylight
16 Dec - 07:23:31 10° NNW 07:26:08 14° N 07:28:45 10° NNE daylight
16 Dec - 09:04:25 10° NNW 09:08:15 22° NNE 09:12:02 10° ENE visible
16 Dec - 10:44:36 10° NW 10:49:31 80° NE 10:54:13 10° SE visible
16 Dec - 12:26:44 10° W 12:29:35 16° SW 12:32:21 10° SSW night (unlit)
